Location: Jerusalem
(31.7670°N, 35.2330°E)
Time: 07:53:40
(UTC+03:00)

ISS - Visible Passes

Search period start: 23 July 2017 00:00
Search period end: 02 August 2017 00:00
Orbit: 400 x 408 km, 51.6° (Epoch: 23 July)

Date Brightness Start Highest point End Pass type
(mag) Time Alt. Az. Time Alt. Az. Time Alt. Az.
23 Jul -1.8 04:35:56 10° NNW 04:38:54 32° NE 04:41:52 10° ESE visible
23 Jul -2.8 21:12:00 10° WSW 21:15:08 47° NW 21:18:17 10° NNE visible
24 Jul -0.8 03:44:13 10° N 03:46:29 17° NE 03:48:45 10° E visible
24 Jul -3.2 05:20:01 10° WNW 05:23:01 34° SW 05:26:01 10° SSE visible
24 Jul -4.0 20:19:37 10° SW 20:22:50 73° SE 20:26:04 10° NE visible
24 Jul -0.3 21:58:37 10° NW 21:59:38 11° NNW 22:00:39 10° NNW visible
25 Jul -0.2 02:53:32 10° NNE 02:53:57 10° NNE 02:54:21 10° NE visible
25 Jul -4.0 04:27:32 10° NW 04:30:48 85° SW 04:34:02 10° SE visible
25 Jul -0.8 21:04:42 10° W 21:07:06 19° NW 21:09:31 10° NNE visible
26 Jul -1.8 03:40:03 23° E 03:40:03 23° E 03:41:34 10° ESE visible
26 Jul -1.9 05:13:18 10° WSW 05:14:38 12° SW 05:15:58 10° SSW visible
26 Jul -2.0 20:11:39 10° WSW 20:14:40 36° NW 20:17:41 10° NNE visible
28 Jul -0.7 20:04:32 10° WNW 20:06:37 16° NW 20:08:41 10° N visible
